{"data":{"norad_id":60423,"intl_designator":"2024-143B","name":"ASBM-2","alt_names":[],"object_type":"PAYLOAD","status":"ACTIVE","operator":null,"country":"NOR","launch_date":"2024-08-12","launch_site_code":"AFWTR","launch_vehicle":null,"mission":null,"orbit_class":"UNKNOWN","rcs_meters":null,"size_class":null,"mass_kg":null,"dimensions":null,"purposes":[],"wikipedia_slug":null,"has_3d_model":false,"image_url":null,"decayed_at":null,"tle_current":{"epoch":"2026-09-15T13:47:03.350976Z","epoch_age_seconds":711829,"freshness":"AGED","line1":"1 60423U 24143B   26258.57434434 -.00000072  00000+0  00000+0 0  9994","line2":"2 60423  62.8936  41.9938 5640686 269.4595  29.3828  1.50425879 12961","mean_motion":1.50425879,"eccentricity":0.5640686,"inclination_deg":62.8936,"raan_deg":41.9938,"arg_perigee_deg":269.4595,"mean_anomaly_deg":29.3828,"bstar":0,"rev_number":1296,"period_min":957.28209106892,"perigee_km":7648.0068380199,"apogee_km":43945.953341119,"semimajor_km":32175.117089569,"source":"CELESTRAK","updated_at":"2026-09-23T09:00:20.608894Z"}}}